Location: McNierney
(34.1937°N, 106.9061°W)
Time: 21:49:59
(UTC+00:00)

COSMO-SKYMED 1 - Pass Details

Date: 11 December 2025
Orbit: 578 x 580 km, 97.9° (Epoch: 21 January)

Event Time Altitude Azimuth Distance (km) Brightness Sun altitude
Rises 12:20:49 0° 154° (SSE) 2,791 6.5 -20.7°
Reaches altitude 10° 12:23:00 10° 148° (SSE) 1,896 5.7 -20.2°
Maximum altitude 12:26:58 48° 74° (ENE) 771 3.4 -19.4°
Drops below altitude 10° 12:30:56 10° 1° (N) 1,909 4.9 -18.6°
Enters shadow 12:32:05 - 357° (N) 2,374 5.4 -18.4°
